ECMWFFLT1_sfc_dewp_024.txt.gz
Dewpoint
54 56 57 59 59 61 62 64 65 66 67 67 68 69 70 70 71 71 71 71 72 71 72 72 72 72 72 72 72 71 70 68 67 65 64 62 63 63 63 64 64 64 63 63 63 65 66 67 67 67 67 67 67 66 67 68 68 68 67 67 67 67 66
54 56 57 58 59 60 62 64 65 66 67 67 68 69 70 70 71 71 71 71 72 72 72 72 72 72 72 72 71 70 69 67 66 66 64 63 64 64 64 64 64 63 64 63 63 64 66 66 66 66 66 68 67 67 67 67 68 67 67 66 66 66 67
54 56 57 58 59 60 62 63 65 66 67 67 68 68 69 70 71 71 71 71 72 72 72 72 72 72 72 72 71 69 68 66 65 65 63 62 63 63 64 64 64 63 63 63 63 63 66 66 66 66 66 66 67 66 66 66 67 67 67 66 66 66 65
53 55 57 59 60 61 62 63 64 65 66 67 68 68 69 70 71 71 71 71 71 72 72 72 72 72 72 71 70 68 66 65 65 64 63 62 63 64 64 64 64 63 63 63 63 64 66 66 66 66 68 66 66 66 66 66 66 66 66 66 66 65 65
53 54 56 58 59 61 62 63 64 65 66 67 68 69 69 70 70 71 71 71 71 71 72 72 72 72 72 71 70 68 66 64 64 64 63 63 64 64 63 63 63 63 63 63 64 66 66 66 65 65 66 66 65 65 65 65 65 66 66 66 66 66 65
52 54 55 57 59 60 61 62 63 65 65 66 67 68 69 69 70 70 71 71 71 72 72 72 72 72 71 71 70 68 66 64 64 64 63 63 64 63 63 63 63 63 63 63 65 65 65 65 65 65 65 65 65 65 65 65 65 65 65 65 65 65 65
52 53 54 56 58 60 61 62 63 64 65 66 67 68 68 68 69 70 70 71 71 71 71 71 71 72 71 70 69 68 66 64 63 63 63 64 64 63 63 63 64 63 63 64 63 64 64 65 65 65 65 64 65 65 65 65 64 65 65 65 65 65 65
52 53 54 56 57 59 60 62 63 64 65 66 67 67 67 68 69 69 70 70 71 71 71 71 71 71 71 69 68 67 66 64 63 63 63 63 63 63 63 63 64 63 64 63 63 64 64 64 64 65 64 64 64 64 64 64 64 64 64 64 64 64 65
51 53 54 55 56 58 60 62 62 63 65 66 66 67 67 68 68 69 69 70 70 71 71 71 71 71 70 69 67 66 65 64 63 63 63 63 63 63 63 63 63 64 63 62 62 64 64 64 64 65 64 64 64 64 64 64 64 64 64 64 64 64 64
52 53 54 55 56 57 60 61 63 64 64 65 66 66 67 67 68 68 69 69 70 70 71 71 71 70 69 68 67 66 64 63 63 62 62 62 62 62 62 62 63 64 63 62 62 62 64 64 64 64 64 64 64 64 64 64 64 64 64 64 64 64 64
52 53 54 55 57 58 60 61 62 63 64 64 65 65 66 67 67 68 68 69 69 70 70 71 71 70 69 67 66 65 64 63 63 63 63 62 62 62 62 62 62 63 63 62 62 62 63 64 64 64 64 63 63 63 64 63 64 64 64 64 64 64 64
53 53 54 55 57 58 59 60 62 62 63 64 64 65 66 66 67 67 68 68 69 69 70 70 70 69 68 66 66 65 64 63 63 63 63 63 63 63 62 62 62 62 63 62 61 62 62 62 63 63 63 63 63 63 63 63 64 64 64 63 64 64 64
52 53 54 54 56 58 60 60 60 61 62 63 63 64 65 65 66 66 67 68 69 69 70 70 69 69 68 66 66 65 65 64 64 65 64 65 64 64 63 62 62 61 62 63 62 61 62 62 62 63 63 63 63 63 63 63 63 63 63 63 64 64 64
58 54 55 55 56 57 58 59 60 60 61 62 63 64 64 65 66 66 67 67 68 69 69 69 69 68 68 67 67 66 65 66 64 65 65 65 64 63 63 63 62 62 62 63 63 62 62 62 62 62 63 63 63 63 64 63 63 63 63 64 63 64 64
52 52 53 54 55 57 58 58 59 60 60 61 62 63 64 64 66 67 68 68 69 69 69 69 68 68 67 67 67 65 65 65 65 64 64 64 63 63 63 63 63 63 63 63 63 63 62 62 62 62 62 63 63 63 63 63 62 63 63 63 63 64 63
51 52 52 53 55 56 57 58 59 59 60 61 61 62 63 64 65 66 67 68 69 69 69 68 68 67 67 66 65 65 65 65 65 64 64 63 63 63 63 63 63 63 63 63 64 63 63 62 62 60 60 61 62 62 62 62 63 64 63 62 63 62 63
51 51 52 53 55 56 57 58 58 59 60 60 61 61 62 64 65 67 68 68 69 69 69 68 67 67 67 65 64 65 65 65 65 64 64 64 64 63 63 63 64 64 64 64 63 63 63 62 61 60 60 60 60 61 61 62 62 62 60 61 63 64 63
51 52 52 53 55 56 57 58 58 58 59 60 61 62 62 63 65 67 68 68 68 68 68 67 67 66 66 65 65 65 65 65 64 64 64 65 64 64 64 64 64 64 64 63 63 63 62 62 61 61 60 60 60 60 61 62 62 60 60 61 61 63 65
52 53 53 54 55 57 57 57 58 59 59 60 61 62 63 65 66 67 67 68 68 68 67 66 66 66 65 65 65 64 64 64 63 64 63 64 65 64 64 64 64 63 63 62 63 63 62 62 61 61 61 61 61 61 61 62 61 60 60 60 60 60 62
52 53 54 55 56 57 58 60 60 60 60 61 62 63 64 65 66 66 67 68 67 67 66 66 66 66 65 65 64 64 63 62 61 61 62 64 65 64 64 64 63 63 63 64 63 62 62 61 61 61 61 61 62 62 62 62 61 59 59 58 58 59 61
53 55 56 57 58 59 60 61 63 62 62 62 62 63 65 66 66 67 67 67 67 66 66 66 66 65 65 64 64 64 63 61 60 61 61 63 64 64 64 64 63 62 62 62 62 62 62 62 61 61 62 62 63 62 62 62 60 58 58 57 57 58 60
53 55 56 58 58 60 61 61 62 63 64 65 65 64 65 65 67 67 67 67 66 66 66 66 65 64 64 64 64 63 62 61 60 61 61 63 64 64 64 62 61 58 57 60 62 62 62 62 61 61 62 63 63 62 62 62 59 58 57 57 57 58 62
54 56 57 59 59 60 61 62 63 64 66 66 66 65 65 66 66 66 66 66 66 65 65 65 65 64 64 63 64 63 62 61 61 61 61 63 63 63 62 61 59 58 62 62 62 61 61 61 61 63 62 62 63 62 62 63 60 57 56 56 56 58 62
54 57 57 58 59 60 62 63 64 66 66 66 66 66 65 66 66 66 65 65 65 65 65 64 64 64 64 63 63 63 62 62 61 61 62 62 63 63 63 61 59 61 63 62 62 61 61 61 62 63 63 63 62 62 62 62 61 56 54 54 55 59 60
53 54 56 56 56 60 64 65 66 66 66 66 65 64 65 65 65 65 65 65 65 65 64 64 64 64 64 64 63 63 63 62 62 62 62 63 63 63 62 61 61 62 63 62 62 62 62 63 62 63 63 63 63 63 63 63 61 55 54 53 54 58 60
62 65 67 67 66 66 67 67 66 65 65 65 64 64 65 65 65 65 64 64 65 64 64 64 64 64 64 64 64 63 63 63 63 62 63 63 63 63 62 61 62 62 62 63 63 63 62 63 63 62 63 62 63 63 64 64 63 62 55 54 52 54 61
67 67 67 67 67 68 65 65 65 65 64 64 63 64 64 64 64 64 65 64 64 64 64 64 65 65 65 64 64 63 63 63 63 63 64 64 64 64 63 62 62 63 63 63 63 63 63 63 63 62 62 62 63 62 62 62 62 62 55 52 52 53 57
68 68 68 69 68 66 64 64 64 64 63 63 63 64 64 64 64 64 64 64 63 64 64 64 65 65 64 64 63 63 63 63 64 63 63 64 64 63 62 63 63 63 63 64 64 63 62 62 62 62 61 60 61 61 62 62 62 62 58 53 51 51 54
65 66 66 67 67 67 64 63 63 63 62 62 62 63 63 64 64 64 64 63 63 64 64 65 65 65 64 64 63 64 64 64 64 64 63 63 63 63 63 64 64 64 64 63 63 62 62 61 61 60 60 60 60 61 61 60 61 60 61 54 49 49 51
63 63 64 65 66 66 65 63 63 62 62 62 62 62 63 63 64 63 63 62 63 64 64 65 64 64 64 64 64 64 64 64 65 64 64 64 64 64 63 64 64 64 64 63 63 62 61 60 60 59 59 59 60 59 60 59 59 59 60 57 51 49 48
62 63 63 63 65 65 64 63 62 62 62 62 62 62 62 63 63 64 62 61 63 63 63 64 64 64 64 64 63 64 64 64 64 64 64 64 64 64 63 63 63 63 62 62 62 61 61 60 59 59 60 60 59 59 58 58 59 60 60 58 54 49 48
62 62 63 63 63 64 64 64 63 62 62 62 62 62 63 62 63 63 61 62 63 62 63 63 63 63 63 63 63 63 64 64 64 65 65 65 65 64 64 63 63 62 62 61 61 61 60 59 59 59 58 58 59 58 57 58 59 58 58 58 55 51 50
61 62 61 62 63 65 63 63 62 62 63 62 62 62 62 62 62 62 62 63 62 62 62 62 63 63 63 63 63 64 64 64 65 65 65 64 64 64 64 63 63 62 62 61 61 60 59 59 59 59 59 59 58 58 58 58 56 55 53 52 53 53 53
61 61 61 61 63 64 63 63 62 63 62 62 62 62 62 62 63 62 62 62 61 61 62 62 62 62 62 62 62 63 65 65 66 65 64 64 63 62 62 61 62 61 61 60 60 60 59 59 59 59 58 59 57 57 58 57 55 54 52 49 51 51 49
60 60 61 62 63 64 62 63 63 63 63 62 62 62 62 62 63 64 64 63 62 62 62 62 64 62 62 62 63 63 65 64 66 64 62 57 53 49 48 51 56 58 54 52 52 56 59 59 58 59 58 58 58 58 58 57 56 55 49 52 49 49 47
60 60 60 61 62 62 62 63 63 63 63 62 62 62 62 62 63 64 65 65 64 62 62 63 63 62 62 62 62 62 63 63 63 61 59 56 54 50 48 47 42 46 53 51 49 47 44 50 58 58 56 54 50 53 58 57 57 44 41 40 40 40 41
61 61 61 62 62 62 62 62 63 63 62 61 62 62 62 62 63 64 64 65 65 64 62 63 62 62 62 62 62 62 63 62 61 60 58 56 55 54 51 50 47 40 41 45 45 43 41 43 45 47 50 53 49 47 46 45 41 40 39 39 39 39 38
62 61 62 62 61 61 61 62 62 62 62 61 62 62 62 63 63 64 64 64 64 64 64 63 63 62 62 62 62 63 63 62 61 58 56 56 55 54 54 52 50 49 42 39 41 41 40 40 41 42 43 45 48 46 47 43 40 40 40 40 39 39 38

ECMWFFLT1_sfc_dewp_027.txt.gz
Dewpoint
55 56 59 61 62 61 62 65 66 66 68 68 68 68 68 69 70 71 71 72 72 73 74 74 75 75 75 75 75 76 75 75 75 74 73 73 72 72 70 69 69 70 69 68 68 68 69 70 71 70 71 71 69 69 70 70 70 69 69 69 69 69 68
54 55 57 59 60 61 63 65 67 66 67 68 68 69 68 69 71 71 71 72 73 73 74 74 75 75 75 75 75 76 75 75 75 74 74 73 72 71 71 70 69 69 70 69 69 70 70 70 70 70 70 70 69 70 69 70 70 69 68 69 69 69 69
54 55 56 58 60 61 64 64 66 66 67 67 67 68 69 70 71 71 72 72 73 73 74 74 75 75 75 75 75 75 75 75 74 74 73 71 71 69 70 70 69 69 69 70 70 70 70 70 71 70 69 69 68 69 69 69 70 69 69 69 69 68 68
56 56 57 60 62 63 64 64 65 65 66 67 67 68 69 72 72 72 72 72 73 73 74 74 74 74 75 75 75 75 75 75 74 73 72 71 70 70 69 69 69 69 69 69 68 68 69 70 70 70 70 69 69 68 69 69 68 69 69 69 68 68 68
57 57 57 59 59 62 62 63 64 66 66 66 68 70 70 71 71 72 73 73 72 73 73 74 74 75 75 75 75 75 75 74 74 73 72 71 71 70 69 67 68 68 68 69 69 69 70 69 69 69 69 69 68 69 69 69 69 69 69 69 68 68 67
55 58 58 58 59 60 62 62 63 64 65 66 68 70 70 69 69 69 71 72 73 73 74 74 75 75 75 75 75 75 75 74 74 73 72 71 70 69 68 68 67 67 68 68 68 68 69 69 68 68 68 67 67 67 67 68 68 68 68 69 68 67 66
56 57 58 59 60 60 61 61 61 63 65 66 68 69 68 68 68 69 69 71 72 73 73 74 74 74 75 75 75 74 74 73 73 72 71 69 69 69 69 68 68 68 68 69 68 68 68 69 69 69 69 68 68 67 68 69 68 69 69 69 68 68 68
56 57 59 60 59 59 60 62 62 63 65 67 67 67 67 68 68 69 69 70 71 71 71 72 73 74 75 75 74 73 73 72 71 71 70 69 68 68 68 68 68 69 69 68 69 68 67 68 68 69 69 68 68 69 69 69 69 67 68 68 67 67 67
56 59 58 57 58 58 60 63 63 65 67 68 68 69 68 69 68 69 70 70 71 71 71 71 72 74 75 74 73 73 72 71 70 70 69 68 68 66 66 66 68 69 68 67 66 68 68 68 68 69 69 68 68 69 69 69 69 68 68 67 67 67 65
58 59 60 59 59 59 62 64 66 68 69 69 69 70 69 69 70 70 70 70 70 71 71 72 72 73 74 73 73 72 72 71 69 68 67 66 67 65 64 64 67 67 67 67 66 66 67 68 68 68 69 68 68 69 68 68 68 68 68 68 68 67 67
58 61 61 60 61 63 64 63 66 68 68 70 70 69 70 70 70 70 70 70 69 70 71 72 73 73 74 73 72 71 72 70 68 68 67 67 65 65 63 63 64 66 65 66 65 66 67 67 67 68 68 67 68 68 68 68 67 68 68 68 68 68 67
60 60 62 62 63 64 63 66 68 68 69 69 69 69 71 71 70 70 71 71 70 70 71 72 72 73 73 72 71 71 71 70 68 67 67 67 65 64 64 64 65 65 65 66 64 65 65 66 66 67 67 67 68 68 68 68 68 68 68 67 67 67 67
59 61 61 60 63 64 67 67 67 68 69 68 68 69 70 70 70 70 71 71 71 71 72 73 73 74 73 72 71 71 70 70 68 67 67 67 67 66 66 64 64 64 64 64 64 63 64 64 66 66 66 67 67 67 67 67 67 68 68 68 67 67 67
59 59 60 62 63 63 64 67 68 68 69 68 68 70 69 70 70 70 71 71 71 71 71 72 73 74 74 72 71 71 70 69 68 69 68 68 68 68 68 67 66 66 65 65 64 63 64 64 65 65 65 66 67 67 67 67 67 67 67 67 67 67 67
55 56 59 59 63 65 66 66 67 68 68 68 68 69 69 69 70 71 71 71 71 70 71 73 74 74 73 72 71 71 71 70 68 69 69 69 68 67 67 66 67 66 66 66 65 65 64 64 65 65 66 67 67 66 66 66 66 66 67 67 67 68 67
54 55 56 58 62 63 65 66 67 68 68 69 68 69 68 69 70 70 70 70 70 71 72 74 74 74 73 71 71 71 70 69 69 68 69 68 67 67 68 67 66 65 65 65 66 65 65 65 66 64 65 65 66 66 66 66 66 65 63 64 67 68 67
56 55 56 59 63 63 65 66 67 67 68 68 68 68 68 69 69 70 68 70 71 72 73 73 74 73 72 71 71 71 70 69 68 68 68 69 68 67 67 66 65 65 65 65 65 66 66 67 65 63 64 64 64 65 65 65 66 63 61 61 63 66 66
57 58 58 59 61 63 64 64 66 66 67 67 68 68 69 69 69 69 69 70 71 71 72 72 73 72 72 72 72 71 69 68 68 67 67 68 66 65 64 65 66 65 65 65 66 66 67 66 65 65 64 63 63 63 64 65 63 60 60 61 61 63 66
57 58 59 61 62 63 62 62 64 66 65 66 66 67 68 69 68 69 70 71 71 73 72 71 71 72 72 72 71 70 69 68 68 67 67 67 66 64 64 64 64 64 65 65 66 67 67 67 66 65 65 64 64 63 63 64 62 60 59 60 60 61 63
57 58 58 59 60 61 63 64 64 64 65 67 67 67 66 67 68 69 71 72 73 72 72 72 72 72 72 71 71 69 68 68 68 67 67 66 66 65 66 64 63 62 63 65 66 66 66 65 66 65 65 64 65 65 64 64 62 59 58 58 59 60 62
59 58 59 61 62 61 64 65 66 66 66 66 66 66 66 67 68 70 71 72 72 72 72 72 72 72 71 70 70 69 68 67 67 67 66 66 65 66 65 64 62 62 63 64 65 66 66 65 64 64 64 64 64 64 64 64 60 58 57 57 57 58 61
55 57 59 60 63 65 65 63 65 63 65 66 68 67 66 67 67 69 71 72 71 71 72 72 72 71 71 70 69 68 68 67 67 67 65 65 64 62 63 64 62 62 63 64 65 66 65 65 64 64 64 64 64 64 64 63 59 58 57 57 57 59 64
56 58 60 62 62 64 68 67 67 67 70 68 67 67 67 68 68 69 70 71 70 71 71 71 71 71 71 69 69 68 67 67 67 66 64 63 62 62 61 62 63 64 65 64 65 65 65 65 64 66 65 65 66 65 65 65 61 57 56 56 56 58 65
56 58 61 62 67 67 68 69 69 70 69 69 68 68 69 69 70 71 71 71 71 70 70 70 70 70 70 69 68 68 67 66 66 65 64 63 62 61 61 63 63 63 65 65 65 64 64 64 65 66 66 65 65 63 65 65 63 56 55 55 56 60 66
57 59 62 63 63 66 67 70 71 70 71 70 70 70 70 70 71 70 70 70 68 68 69 69 70 69 69 69 68 68 67 65 66 66 64 63 63 62 63 63 63 65 65 64 64 64 64 63 63 64 65 64 64 64 64 64 62 55 54 54 55 60 66
64 63 65 67 68 70 71 71 71 72 71 72 71 70 70 70 70 71 70 68 69 68 69 69 70 70 69 69 68 67 66 65 66 65 64 63 62 62 62 62 63 64 64 64 64 64 63 63 62 64 65 65 65 65 64 65 67 65 54 53 53 56 65
67 67 67 66 67 69 70 71 71 70 71 71 70 70 70 70 70 70 70 70 69 69 69 70 70 69 69 69 68 67 66 65 65 64 63 63 63 63 62 63 63 63 64 64 64 64 65 66 66 65 66 66 66 66 67 66 66 65 53 52 52 54 58
67 67 67 68 69 69 68 68 69 68 67 69 69 69 69 71 71 70 70 69 69 70 70 70 70 69 69 68 67 66 66 65 65 64 64 64 64 64 64 64 64 65 65 65 66 66 66 67 67 67 66 66 65 65 66 65 64 67 57 53 51 52 54
69 69 69 69 68 68 68 69 68 67 67 67 68 69 69 70 70 70 69 69 70 70 69 69 69 69 68 67 67 66 66 65 65 64 63 63 64 65 65 65 65 65 66 67 67 66 66 67 67 66 64 64 64 64 64 65 65 62 64 52 50 50 51
69 68 68 67 68 68 68 69 69 68 67 67 68 68 69 70 70 69 69 70 69 69 69 69 69 68 67 67 66 66 65 65 64 64 64 65 65 65 65 66 66 66 67 67 66 66 66 67 65 64 63 62 63 63 64 64 64 61 61 58 51 49 49
67 68 69 69 69 70 70 70 70 68 67 67 67 67 68 69 70 69 69 69 68 68 68 68 68 67 67 67 66 66 66 66 65 65 65 66 66 65 65 65 66 67 67 67 66 66 65 64 64 63 64 63 62 63 63 63 63 61 61 58 53 50 49
66 67 68 69 70 70 70 70 69 69 68 67 67 67 67 68 68 69 69 68 68 68 68 68 67 67 67 66 66 66 66 65 65 66 66 66 66 66 66 66 66 65 66 66 65 66 65 64 65 64 63 63 63 63 62 63 62 61 61 58 56 53 50
66 66 67 68 69 70 70 70 68 68 68 68 66 65 64 66 66 68 68 67 67 67 68 68 67 66 66 66 66 67 66 66 65 65 65 65 65 66 65 64 65 65 66 66 66 65 66 66 63 62 62 61 63 63 62 62 61 61 60 60 59 57 55
67 67 66 66 67 68 69 69 68 68 68 68 67 66 65 65 65 67 66 64 64 64 67 67 67 66 66 65 66 66 66 66 66 65 64 64 64 63 63 64 65 65 65 65 66 66 65 64 63 62 61 61 62 62 62 61 60 59 59 58 58 58 58
66 66 67 68 68 68 68 69 68 68 68 67 67 66 66 66 66 66 67 66 65 66 67 67 67 66 66 66 66 66 66 65 65 64 64 64 62 56 53 55 64 64 64 61 64 67 64 63 62 62 61 61 62 61 60 59 59 59 55 60 52 58 56
67 66 66 66 66 67 68 67 68 67 67 67 67 67 67 67 66 66 64 65 65 66 66 66 66 64 64 64 64 64 64 65 64 64 64 62 60 55 52 47 42 45 57 58 51 49 47 52 62 61 60 59 61 60 60 59 60 47 45 42 42 42 42
64 65 65 65 66 66 67 67 67 67 67 67 67 67 67 67 65 66 64 65 65 65 65 65 65 64 62 63 62 63 64 64 64 65 62 59 59 59 56 54 50 40 40 44 46 44 42 45 47 52 55 59 57 52 45 46 44 42 40 40 39 39 39
60 63 64 65 65 66 67 67 67 67 67 67 67 66 67 65 65 66 64 65 66 65 65 65 64 63 63 62 63 65 66 65 65 63 61 61 61 61 60 57 55 52 42 39 41 41 41 41 42 44 46 49 52 51 50 44 40 40 39 39 39 39 38

ECMWFFLT1_sfc_dewp_030.txt.gz
Dewpoint
57 59 60 60 62 62 63 64 66 66 67 68 69 69 69 70 71 72 73 74 75 75 76 77 77 77 77 77 77 77 77 77 77 76 75 75 74 74 74 73 73 73 71 70 70 68 69 69 68 68 68 68 68 68 69 69 69 68 68 68 68 67 68
56 57 58 59 61 62 64 65 67 66 67 68 69 70 69 70 71 71 73 74 75 75 76 76 77 77 77 77 77 77 78 77 77 76 76 76 75 75 74 74 74 74 73 71 70 70 70 69 68 68 67 68 68 69 68 69 69 69 67 68 67 67 67
55 56 57 59 61 61 64 65 66 66 68 67 67 68 69 71 72 72 73 73 75 75 76 77 77 76 77 77 77 77 77 77 77 77 76 75 75 74 75 75 74 73 73 72 71 70 70 69 69 68 68 68 68 68 69 69 69 68 68 68 67 66 67
55 55 57 60 63 64 64 65 66 66 66 66 67 68 70 71 72 72 73 73 74 75 75 76 76 76 76 77 77 77 77 78 77 76 76 75 75 76 75 75 75 74 72 71 70 70 69 68 68 68 68 68 68 68 68 68 68 68 68 68 66 67 67
55 56 56 58 60 62 64 64 65 67 65 65 67 70 70 71 71 72 72 73 73 74 74 75 75 76 76 77 76 76 77 77 77 77 76 75 76 76 75 74 74 73 72 72 71 70 69 68 67 67 68 68 67 68 68 68 67 68 68 67 67 67 66
54 56 57 57 58 61 63 63 64 64 64 64 67 68 69 68 69 69 71 73 73 73 75 75 76 76 76 76 76 76 77 78 77 77 76 76 76 75 74 74 73 73 71 71 70 69 69 67 66 67 67 66 66 66 66 67 67 67 67 67 67 66 65
55 58 57 58 59 60 62 63 63 63 65 65 66 68 67 66 67 68 69 71 72 73 73 73 75 75 76 76 76 77 77 77 77 77 76 76 74 74 74 74 74 72 71 71 69 68 67 67 67 68 68 67 67 66 67 67 66 67 67 67 67 67 66
57 58 60 59 58 58 59 63 63 63 65 65 65 65 66 66 67 67 68 68 70 70 71 71 73 75 76 76 76 76 77 77 77 76 75 74 74 74 73 74 73 73 72 70 70 68 66 67 67 68 68 66 67 67 67 67 68 66 66 67 66 66 65
56 60 59 57 58 56 58 62 63 64 66 67 67 68 68 67 66 67 68 68 70 70 70 70 72 74 76 76 76 76 76 77 76 75 75 73 73 71 72 72 73 72 71 69 68 69 67 67 67 69 68 67 68 68 66 67 67 66 65 65 65 65 64
58 61 61 59 59 56 59 62 65 66 67 68 68 69 69 68 68 68 68 67 68 69 70 70 71 73 75 76 76 76 77 76 75 74 72 71 71 71 71 71 72 71 70 68 66 67 67 68 69 70 70 67 66 66 66 66 66 66 66 66 65 65 65
57 62 63 61 60 60 61 63 66 67 68 70 70 69 70 70 69 68 69 68 67 68 70 71 71 72 75 75 74 75 76 75 74 73 72 71 70 71 70 69 70 70 69 68 66 67 68 69 70 70 69 65 66 66 66 67 66 67 65 65 66 65 65
62 63 64 63 62 62 62 66 68 69 70 71 70 70 71 71 70 69 69 70 68 68 70 71 71 72 74 74 74 75 75 75 74 72 72 72 71 71 70 70 71 69 68 67 65 67 67 69 67 67 67 66 66 66 66 67 67 67 66 64 64 65 65
62 62 64 61 63 63 66 68 69 70 71 71 70 71 71 71 70 70 71 71 69 70 71 72 72 74 75 74 73 74 74 75 73 72 72 72 72 72 70 69 68 67 67 65 64 64 63 63 66 67 66 66 66 67 67 67 67 67 67 67 66 66 67
63 61 61 63 64 65 67 69 70 71 72 71 70 71 71 71 71 71 72 72 71 70 70 71 74 75 75 75 74 74 74 74 73 73 72 72 73 72 71 70 69 69 67 65 64 60 61 63 64 66 67 67 66 66 67 67 67 69 69 67 67 67 67
58 57 61 61 65 66 67 68 71 71 71 71 71 71 71 71 71 72 73 73 73 70 71 74 75 75 75 76 75 75 75 75 74 73 73 72 72 72 71 70 70 69 67 67 65 63 63 63 65 67 67 67 66 66 66 67 67 67 67 67 67 67 65
56 56 58 61 65 65 67 69 70 71 71 71 71 71 71 71 72 72 72 72 72 73 73 74 75 76 76 75 75 75 75 74 74 73 72 72 72 72 72 70 70 69 70 69 66 64 63 64 66 65 65 66 66 66 67 67 67 66 64 65 66 65 65
56 55 57 61 65 65 67 68 69 70 71 71 71 71 71 72 72 73 71 73 73 74 74 74 76 76 76 75 74 74 75 74 74 73 72 72 72 73 72 71 70 70 69 69 68 66 67 66 65 62 63 62 64 67 67 67 67 63 61 61 63 65 65
57 59 58 60 64 65 66 66 69 70 70 70 71 72 72 73 73 73 72 73 73 73 73 74 75 75 76 74 74 74 74 74 74 73 72 72 71 72 72 71 71 70 70 68 66 66 65 65 65 64 61 61 63 66 66 67 64 61 61 61 61 63 66
57 59 60 63 64 66 65 65 68 70 69 70 71 72 72 73 72 73 73 73 74 74 74 73 73 76 76 75 75 74 73 73 73 72 72 72 71 72 71 71 70 69 69 67 67 67 66 65 65 65 65 66 67 66 66 66 62 60 60 60 60 61 63
58 58 60 61 64 65 66 67 67 68 69 71 72 72 71 73 73 73 73 74 74 74 75 75 75 75 75 75 74 73 74 73 72 72 72 71 71 71 70 70 69 69 68 67 68 67 65 64 65 66 66 67 67 66 65 64 62 59 59 59 59 60 62
61 61 62 63 65 64 67 68 68 69 70 70 71 71 71 72 72 73 74 74 74 75 75 75 75 75 75 75 74 73 73 72 72 72 71 71 71 71 70 69 70 69 67 66 65 65 65 64 66 66 67 66 66 66 64 62 59 58 58 57 57 58 61
59 58 60 62 66 66 67 65 68 68 70 70 70 70 70 71 71 73 73 74 74 74 74 75 74 75 75 75 74 73 73 72 72 72 71 71 70 70 70 70 69 69 68 66 65 65 68 67 63 65 66 66 65 63 63 58 58 57 57 56 56 58 64
53 57 58 61 61 64 68 68 69 69 71 70 69 68 67 68 69 72 73 73 72 74 74 74 74 74 75 74 73 72 72 72 71 71 71 71 70 69 69 70 69 68 67 66 65 63 62 60 61 66 64 61 62 64 63 59 60 56 56 56 56 58 64
52 55 57 61 66 68 69 68 67 70 67 68 67 67 68 68 71 73 73 72 73 73 73 73 73 74 74 74 73 72 72 72 71 71 70 70 69 69 69 69 68 66 65 63 62 61 62 62 63 64 61 58 60 61 62 60 59 55 55 55 55 60 64
56 58 63 63 63 64 65 67 68 68 69 69 68 69 70 71 73 73 73 72 71 71 72 72 73 73 74 74 73 72 71 71 71 71 70 70 69 68 69 69 68 64 62 60 59 60 61 60 63 62 60 60 59 64 62 59 59 55 55 54 55 60 65
59 59 61 64 64 68 71 72 71 69 69 70 72 72 72 72 72 72 71 70 71 71 71 72 73 74 74 74 73 71 71 71 71 71 70 70 70 70 69 68 66 63 61 60 59 57 58 60 61 61 61 60 61 60 62 62 62 68 54 53 54 57 65
65 64 63 63 67 70 71 70 69 68 69 73 72 70 70 70 71 72 73 73 72 72 71 73 74 74 74 74 72 70 71 70 70 70 69 69 69 69 68 66 64 63 63 62 60 59 59 61 61 61 62 60 60 60 63 63 64 70 53 53 53 55 60
62 63 65 68 69 67 67 68 72 72 71 73 71 71 71 72 73 73 73 72 72 72 72 73 74 74 74 73 71 70 70 70 69 69 69 70 70 69 66 65 64 64 63 62 63 63 63 63 63 61 61 61 63 65 65 67 67 66 56 53 52 53 56
66 66 67 69 70 69 68 68 68 69 71 71 72 72 73 74 74 73 73 72 73 73 74 73 74 74 73 73 70 70 70 70 70 69 69 69 69 68 65 64 64 65 65 66 65 64 64 63 63 63 64 66 67 69 69 68 67 63 65 53 51 51 53
64 65 64 63 65 68 69 71 71 71 72 72 73 74 73 74 72 72 73 74 74 74 73 74 73 72 71 71 70 70 70 69 69 69 69 69 69 67 65 65 65 66 67 66 64 64 64 63 63 63 64 66 66 66 66 66 65 63 62 58 52 50 50
66 66 67 68 67 70 71 71 72 71 72 72 73 74 73 73 72 73 74 73 73 73 72 72 72 71 70 69 69 70 69 69 69 69 68 68 67 67 65 65 66 66 66 65 65 64 63 62 63 64 65 64 65 65 65 64 64 64 60 57 54 50 49
69 69 70 71 72 72 72 72 72 72 71 72 72 72 73 73 73 74 73 72 72 72 72 71 70 70 69 69 69 68 69 69 68 68 68 67 66 66 65 66 66 66 65 64 64 64 63 62 63 63 62 62 64 65 65 65 65 64 61 59 56 54 51
68 69 71 72 72 71 71 70 68 68 69 70 70 70 69 71 72 72 72 71 71 71 72 70 69 68 69 69 68 68 69 69 67 66 67 67 66 65 65 65 65 65 65 64 63 62 62 63 63 63 63 66 67 66 65 65 64 65 64 61 61 59 57
67 67 69 70 70 70 70 70 70 69 69 69 69 69 69 69 70 70 69 68 67 69 71 69 69 67 68 68 67 68 68 68 67 67 66 65 65 64 65 65 65 64 63 63 63 62 63 62 63 64 64 65 65 64 64 64 63 63 63 64 60 60 60
68 68 69 69 70 70 69 69 69 69 68 69 69 70 70 70 70 70 70 69 69 70 69 69 68 68 68 68 67 67 68 67 67 66 66 65 67 58 53 52 60 65 63 67 68 65 62 63 63 64 63 63 65 64 63 62 62 62 57 67 53 64 58
67 67 67 67 68 69 69 69 69 68 69 69 70 70 70 70 70 69 67 69 68 69 68 68 67 66 65 66 65 64 65 66 65 66 65 65 61 58 53 48 42 44 55 60 53 51 51 56 65 63 64 66 66 64 64 64 64 49 46 45 44 40 40
65 65 65 66 66 67 68 69 69 69 69 69 70 70 70 69 68 68 66 68 68 67 68 67 66 64 63 64 63 63 64 65 65 66 66 65 62 61 60 57 53 42 41 45 48 46 45 47 47 51 59 66 61 55 49 50 47 44 42 42 40 39 38
64 64 64 65 67 68 68 68 68 68 68 69 69 68 69 66 67 68 66 67 67 67 67 67 66 64 63 63 63 65 66 66 67 66 66 66 65 63 62 60 57 54 43 40 42 42 41 42 44 45 48 52 56 55 55 47 43 42 41 40 40 39 38

ECMWFFLT1_sfc_dewp_033.txt.gz
Dewpoint
55 52 52 55 60 60 60 62 64 63 64 66 67 67 66 66 69 71 72 74 76 77 78 78 77 77 76 76 76 76 76 75 75 75 75 74 73 73 73 72 72 72 70 68 70 69 70 70 68 68 69 68 67 68 69 69 68 66 66 67 66 66 66
52 50 50 55 59 61 61 62 64 63 64 65 66 68 66 67 69 70 71 74 76 76 77 78 78 77 77 77 77 77 77 76 75 75 75 75 75 74 73 73 72 72 72 71 70 70 70 69 68 68 68 68 67 68 68 68 68 68 66 66 66 67 66
47 53 54 56 59 61 63 62 64 64 65 63 65 66 67 69 70 71 72 73 76 77 77 78 78 77 77 77 77 77 77 76 76 75 75 74 74 73 74 74 73 72 72 72 71 69 69 70 69 68 68 68 66 68 68 68 69 67 67 66 66 66 65
44 48 54 58 61 63 63 63 64 64 64 64 65 67 69 71 71 71 71 74 75 76 77 77 78 77 77 77 77 77 77 77 76 75 75 74 74 75 74 74 74 73 72 72 70 68 68 69 68 68 68 68 68 68 68 67 66 68 68 67 67 66 66
49 52 55 58 59 62 63 63 64 65 64 64 67 70 70 70 71 71 72 74 74 75 76 77 76 77 77 78 77 76 77 77 76 76 75 75 75 75 74 72 73 72 72 72 71 70 70 69 69 68 68 68 68 68 68 67 67 67 67 67 66 66 65
46 52 54 57 59 60 62 63 63 63 64 64 66 69 69 69 69 69 71 73 74 74 76 77 77 77 77 77 76 76 77 77 77 77 76 76 75 74 74 74 73 73 71 72 70 70 69 69 68 68 67 65 66 66 67 67 66 67 68 68 68 66 64
43 49 54 58 59 60 61 62 63 64 64 64 65 68 68 68 69 68 69 71 72 74 74 75 75 76 77 77 77 77 77 77 77 77 76 76 75 75 75 75 75 73 72 73 71 70 69 69 68 68 67 66 67 67 67 68 68 68 69 69 69 69 68
40 43 56 58 57 58 60 62 63 64 64 64 63 66 66 67 67 66 67 68 70 71 72 71 74 76 77 77 77 76 77 77 77 76 76 76 76 75 75 75 74 74 74 72 72 71 69 69 66 67 67 66 67 67 66 69 69 66 67 67 67 68 66
39 53 57 56 57 56 59 63 63 64 66 66 65 67 67 66 65 65 66 68 70 69 71 69 72 75 77 76 77 77 77 76 77 77 76 76 75 74 73 73 74 74 73 71 71 72 71 68 66 68 68 68 68 67 68 68 68 67 67 67 67 67 65
56 61 61 58 57 54 58 62 65 68 68 68 69 70 68 67 67 66 65 66 68 68 69 69 71 73 76 76 76 77 77 77 76 76 75 74 75 74 73 71 72 73 72 71 70 71 70 68 67 67 69 67 69 67 66 67 67 67 67 67 66 67 66
44 57 64 60 59 59 60 61 65 69 70 72 71 67 70 68 67 66 67 66 66 67 69 69 70 72 75 76 74 75 77 76 75 75 75 74 73 73 71 70 70 72 71 71 71 71 69 68 66 68 69 67 67 67 67 67 67 67 65 65 66 66 65
60 62 66 64 62 61 61 67 69 71 72 72 69 68 72 72 68 67 68 68 66 67 69 69 69 71 74 74 74 75 76 76 75 75 75 75 73 72 71 69 71 71 71 72 70 70 68 67 65 68 69 68 68 68 67 67 67 68 67 65 66 67 65
61 65 66 63 64 63 67 69 70 70 71 70 68 69 70 69 69 68 71 70 67 68 69 71 71 74 75 74 73 74 75 76 75 75 75 75 74 73 71 70 70 70 70 71 70 69 67 65 66 69 69 68 67 65 66 65 67 68 68 67 67 67 66
67 65 66 65 64 64 65 67 69 70 71 70 70 70 70 70 69 70 71 70 68 67 68 70 73 75 75 75 75 76 75 76 76 76 76 76 76 73 72 72 72 72 72 70 69 67 66 65 66 68 68 66 65 65 65 66 67 68 68 68 67 66 64
61 62 64 63 65 66 66 66 70 71 71 71 70 70 71 71 71 72 72 71 71 68 69 72 75 74 74 76 76 76 77 77 77 77 76 75 75 74 73 73 73 73 73 72 70 68 66 66 67 67 65 66 66 66 66 66 66 66 67 66 66 65 65
56 58 61 62 65 65 68 68 71 72 72 73 71 72 71 72 72 71 71 71 69 72 73 74 75 75 75 76 76 76 77 78 78 77 76 76 75 75 75 74 74 73 73 72 70 69 68 68 65 64 64 65 65 65 65 66 65 65 64 66 67 67 65
37 41 44 58 67 66 68 69 72 73 72 72 72 72 73 73 73 72 70 72 72 74 73 73 75 75 75 76 77 77 78 77 77 77 76 76 75 75 75 74 74 74 74 73 72 70 69 66 64 63 62 64 65 66 66 65 66 62 62 63 65 66 66
36 42 41 45 57 67 69 69 72 72 72 72 72 73 73 74 73 73 72 73 72 71 72 74 75 75 76 77 78 77 77 77 77 76 76 75 75 74 74 74 74 74 74 73 71 71 67 65 65 63 64 65 63 62 62 62 64 61 61 62 62 65 66
35 36 41 53 59 67 67 67 70 73 72 72 72 72 72 73 73 74 73 74 75 74 73 74 75 76 77 77 78 77 77 77 76 76 76 75 74 74 73 73 73 73 73 71 71 70 68 67 66 65 62 62 63 61 61 64 63 60 60 61 61 61 64
34 35 35 34 49 54 68 68 68 71 72 73 73 72 72 74 74 74 75 75 75 75 75 76 76 77 77 78 77 77 77 76 75 75 75 75 75 74 74 73 73 73 72 72 72 70 66 65 63 61 64 64 63 63 63 66 61 59 59 59 59 60 62
41 44 44 50 58 52 65 70 70 72 72 72 71 72 72 73 74 74 75 75 75 75 76 75 76 77 78 77 77 77 76 75 75 74 75 75 74 74 73 73 73 73 73 72 72 70 68 65 64 63 63 63 64 62 61 65 59 58 58 57 57 59 61
35 33 36 46 60 66 69 68 69 70 72 71 71 71 72 73 74 74 75 76 76 75 75 76 77 77 77 77 77 76 75 75 75 73 75 74 73 73 73 73 73 73 73 72 71 70 68 65 62 61 63 64 62 63 64 64 58 58 57 57 57 59 64
28 31 34 55 52 64 72 71 71 71 73 72 72 71 72 73 74 75 75 75 75 75 76 76 76 77 77 77 77 76 76 75 74 73 73 73 73 72 72 72 72 72 73 71 70 69 68 65 62 66 66 66 66 62 63 63 60 56 56 56 56 59 64
37 40 45 52 64 67 72 71 71 72 70 72 72 71 73 73 74 75 76 75 75 76 76 75 76 76 77 77 76 76 76 75 74 73 73 73 72 72 71 71 71 72 72 71 69 68 67 66 65 67 66 64 62 59 61 58 61 55 54 55 55 60 62
37 35 48 59 63 67 69 70 71 70 72 73 71 72 73 74 75 75 75 75 74 74 74 74 75 75 76 76 76 76 75 74 73 72 71 71 71 71 71 71 71 71 71 70 70 68 68 66 65 65 64 61 57 62 55 54 63 54 55 54 55 61 64
49 42 48 59 61 67 70 71 72 72 72 71 72 73 73 73 74 75 74 71 72 72 73 74 74 76 77 76 76 75 74 73 73 72 71 71 72 72 71 71 70 71 69 69 68 66 65 64 62 64 64 61 62 62 56 57 63 60 54 53 53 56 64
52 49 55 60 64 70 70 72 72 71 71 72 72 70 71 73 74 73 72 73 73 73 73 74 76 76 77 76 75 74 73 72 72 71 70 71 71 71 70 69 70 69 68 67 65 64 64 62 62 64 63 62 61 59 57 58 59 64 52 52 53 55 59
55 59 63 65 69 69 70 69 70 69 67 70 69 70 72 74 74 73 73 73 73 74 74 75 76 77 76 75 74 73 72 71 72 71 70 71 72 71 70 70 71 70 67 66 65 64 64 63 63 62 63 63 61 60 60 62 63 71 55 53 52 53 55
62 61 61 66 67 68 68 68 67 67 71 70 71 73 73 74 73 73 73 73 74 74 75 76 76 76 75 74 74 72 72 71 71 70 71 71 71 71 70 70 69 69 68 66 64 63 62 62 62 62 62 63 64 64 63 66 68 64 62 52 51 52 52
65 66 70 69 68 68 66 69 71 71 70 70 72 73 74 75 74 74 74 74 75 75 75 75 75 75 74 73 73 72 71 70 69 70 70 70 71 71 70 69 68 68 67 65 64 63 62 62 61 63 63 63 62 62 62 68 68 63 61 59 53 51 51
67 66 65 64 65 69 70 71 72 72 73 73 74 74 74 74 74 74 74 75 75 75 74 74 74 73 72 72 72 71 70 70 70 69 69 70 70 70 69 69 68 67 67 66 65 64 64 63 63 64 64 62 62 64 66 64 66 64 60 57 54 52 50
68 69 69 70 72 72 72 72 72 72 72 72 73 73 75 75 75 74 74 74 74 74 74 73 73 72 72 72 71 70 70 69 69 70 69 70 70 69 69 68 67 66 65 65 65 65 65 65 63 63 63 62 65 64 62 63 65 64 62 59 56 55 52
68 69 70 70 71 70 70 69 69 70 71 72 72 71 71 73 72 73 74 74 73 73 73 73 72 72 71 71 70 70 69 69 67 67 69 69 69 69 68 67 66 66 66 66 65 65 65 64 64 63 61 62 62 64 65 66 65 65 63 63 62 61 58
71 69 68 69 69 70 70 70 70 71 71 71 72 72 72 71 72 72 72 70 70 71 72 71 71 70 70 69 69 68 68 67 68 68 67 68 67 66 67 67 67 66 67 66 66 65 64 63 63 62 61 61 63 65 64 63 64 64 63 62 62 61 61
70 70 70 70 71 71 71 72 71 71 71 71 71 71 71 71 70 70 71 71 72 72 71 70 69 69 69 68 66 66 67 67 68 67 67 66 61 57 54 54 61 67 68 68 68 69 63 63 61 61 60 60 62 63 63 63 63 63 58 63 58 61 61
66 67 68 68 68 69 70 70 70 69 69 70 70 70 71 71 71 70 69 71 70 70 70 69 68 67 66 65 64 64 65 66 66 66 66 62 59 58 55 48 43 47 62 63 54 50 47 56 61 60 60 60 65 66 63 62 64 53 49 45 42 42 43
64 64 65 67 68 68 69 70 70 70 70 70 70 70 69 69 68 68 67 70 70 69 70 69 67 65 63 64 62 61 64 64 65 66 67 63 61 61 59 58 56 42 41 46 48 46 44 44 53 56 59 65 65 58 50 51 47 45 43 42 40 40 40
63 64 64 65 66 67 68 68 69 69 69 69 68 67 68 66 67 69 67 69 69 70 70 69 68 66 63 62 62 67 67 65 66 67 67 64 64 63 62 61 60 58 46 41 44 44 42 42 43 47 50 53 58 56 56 49 45 45 43 42 41 40 40

ECMWFFLT1_sfc_dewp_036.txt.gz
Dewpoint
51 53 54 56 59 59 60 64 64 63 65 67 68 68 67 69 70 72 73 75 76 77 77 77 76 76 76 76 77 77 76 76 77 76 76 76 76 76 75 75 74 74 72 72 72 73 72 74 73 72 71 71 70 71 71 72 71 70 71 70 71 70 68
51 52 52 52 57 59 60 61 65 65 65 67 67 69 67 69 71 71 72 75 76 77 77 76 76 76 76 77 76 77 76 76 77 77 77 77 77 77 75 75 74 74 74 72 73 74 72 73 72 72 71 71 70 71 70 71 71 70 69 69 71 71 69
48 48 50 53 54 59 62 62 64 63 64 65 66 67 68 70 71 72 73 74 76 77 77 77 76 76 77 77 76 76 77 76 76 76 76 76 76 74 75 76 75 74 73 73 74 72 72 71 72 72 71 70 69 70 70 70 71 70 70 69 70 70 71
51 52 53 55 58 61 61 60 61 64 64 63 64 66 68 71 71 72 72 74 75 76 77 77 76 76 77 77 77 76 77 77 76 75 75 75 76 75 75 75 75 74 73 73 72 71 70 71 70 71 71 70 70 69 69 69 68 69 71 69 70 69 71
55 53 53 56 55 59 60 60 61 65 63 62 64 68 69 70 70 71 72 73 73 75 76 77 75 76 76 77 76 76 76 77 76 75 75 75 76 76 75 73 74 72 73 72 73 72 72 71 69 70 70 70 69 69 69 69 68 70 70 70 69 69 69
55 57 57 54 52 55 59 59 59 60 63 62 64 68 68 67 67 67 70 73 74 75 77 77 77 77 76 76 76 76 77 77 77 76 76 76 76 76 75 74 74 73 72 73 72 72 72 70 69 69 68 68 67 67 68 68 68 68 69 71 70 68 67
53 54 55 56 56 56 57 58 57 59 63 63 64 67 67 66 66 66 67 70 72 75 75 76 76 76 76 76 76 77 77 77 77 76 76 76 76 76 75 75 75 73 73 74 73 72 71 70 70 69 69 67 68 67 68 68 69 68 69 69 69 70 68
48 49 55 54 54 52 55 61 62 62 63 65 63 63 65 66 66 65 66 67 70 72 74 74 76 77 76 77 77 76 76 76 76 76 76 75 75 75 75 75 75 75 74 74 74 72 70 70 70 70 69 67 68 68 68 70 69 68 68 69 68 68 67
48 53 56 54 53 53 56 60 63 64 65 66 65 66 66 66 65 65 65 67 69 72 73 74 75 76 77 77 77 76 76 77 76 76 76 75 75 73 73 74 75 75 74 73 72 72 71 70 70 70 69 68 68 69 69 70 68 68 69 69 68 67 67
51 55 58 55 52 50 56 60 64 67 68 67 67 68 67 67 67 66 67 67 69 71 73 73 74 75 77 76 76 76 76 77 77 75 74 73 74 73 72 72 74 75 74 73 72 72 71 71 70 70 70 68 68 69 68 69 69 69 68 69 68 67 67
53 58 58 56 57 58 61 60 63 68 69 69 69 68 69 69 69 68 68 67 68 70 72 72 73 74 75 75 74 75 76 76 76 76 75 74 73 73 72 72 73 74 73 73 72 72 71 71 70 70 69 68 68 69 68 68 69 69 67 68 68 67 67
57 59 61 60 63 63 61 63 66 69 71 71 69 69 71 71 70 69 69 68 68 69 71 71 71 73 75 75 75 76 76 75 75 75 75 74 73 72 72 72 74 74 73 73 72 72 71 71 69 69 69 69 69 68 68 68 68 69 68 67 68 68 68
63 63 65 63 65 64 65 70 70 70 72 71 69 69 70 70 69 68 70 69 67 69 70 72 71 74 76 75 73 75 76 75 75 75 75 75 74 74 73 72 72 72 72 72 71 71 70 71 69 69 68 68 69 68 68 68 69 69 68 67 67 67 67
69 64 65 68 68 69 69 72 72 71 72 72 70 70 70 70 69 69 70 68 67 67 68 70 72 74 76 76 75 75 75 76 75 75 76 76 76 75 74 73 72 73 73 72 72 70 70 70 69 68 68 68 69 69 68 68 68 68 68 67 66 67 67
65 63 65 65 68 70 70 72 74 73 72 73 71 70 70 70 70 70 71 69 68 66 68 71 73 74 75 76 76 76 76 77 76 76 76 76 76 76 75 75 74 74 74 73 72 71 70 70 68 68 68 69 69 68 68 67 68 68 67 66 66 67 67
54 57 63 64 68 68 71 72 75 75 74 74 72 71 70 71 71 70 70 70 68 69 70 73 73 74 75 76 76 76 77 77 77 76 77 77 76 76 76 75 75 73 74 74 72 72 71 71 69 66 68 69 68 68 68 68 67 66 64 64 66 67 67
46 47 60 66 70 68 70 71 74 74 74 74 73 72 71 72 72 72 69 71 70 71 72 73 74 74 75 76 76 77 78 78 77 77 77 77 77 77 76 75 75 74 75 75 74 73 73 72 68 66 68 68 68 67 67 66 66 62 62 63 64 66 67
43 46 52 63 67 67 69 70 72 73 73 73 73 73 73 74 73 72 71 71 71 70 73 73 73 74 75 76 77 78 78 78 78 78 78 78 78 77 77 76 75 75 76 75 74 74 73 72 69 69 69 69 66 65 65 65 63 60 62 62 62 65 66
44 53 57 64 68 68 67 66 69 73 72 72 72 73 73 74 73 73 73 73 73 73 73 73 73 75 76 77 77 78 78 78 78 78 78 78 78 78 77 77 76 76 75 75 75 74 73 72 70 69 69 68 66 65 64 65 62 60 60 61 61 62 65
41 41 47 61 66 68 68 68 69 72 72 73 74 72 72 73 74 74 74 75 75 73 75 75 75 75 76 77 78 78 79 79 79 78 78 78 78 77 77 76 76 75 74 74 75 75 73 71 70 69 68 67 66 65 65 65 61 59 59 60 60 62 64
56 62 57 56 68 66 70 71 72 74 74 74 73 73 72 73 74 75 75 76 75 74 75 75 76 76 77 78 78 79 79 79 78 78 78 77 77 77 76 76 75 75 74 73 74 74 73 72 70 68 67 66 65 64 62 62 59 58 58 58 59 60 63
37 37 42 49 60 72 73 71 72 73 74 73 74 71 71 73 73 75 75 76 75 74 75 77 77 77 77 78 78 78 79 78 78 77 77 77 76 76 75 75 75 74 75 74 74 74 72 70 68 67 66 65 65 62 61 63 58 57 57 58 58 59 64
27 35 38 48 45 57 73 73 72 73 76 75 73 72 72 72 72 75 75 75 74 74 76 77 77 77 77 78 78 78 78 78 78 77 77 76 75 75 74 75 74 75 75 74 74 72 70 68 67 66 64 64 64 63 62 67 59 56 56 57 57 59 64
24 31 36 37 46 44 73 74 73 74 74 74 74 72 73 73 74 75 75 75 75 74 75 76 77 78 78 78 78 78 78 78 77 76 76 76 75 74 74 74 74 74 75 74 73 72 69 68 67 66 65 64 63 62 63 66 59 55 54 56 56 60 63
25 25 33 39 44 42 56 73 73 74 75 74 73 73 74 74 75 76 76 76 73 73 74 75 77 78 78 78 78 78 78 77 76 75 75 75 74 73 73 73 73 74 74 73 73 72 72 69 67 66 65 63 63 64 63 66 61 54 55 54 55 60 64
54 43 39 46 47 74 78 76 76 74 73 73 74 73 75 74 76 76 75 74 73 73 75 76 77 77 78 78 78 77 77 76 75 75 74 73 73 74 74 73 72 73 73 72 72 71 70 69 67 66 65 65 65 65 63 64 64 59 54 53 54 57 64
55 52 52 43 46 73 75 75 75 73 72 74 75 74 74 74 75 76 76 76 75 75 75 77 78 78 78 78 77 76 76 75 75 74 73 73 73 73 72 72 72 72 72 71 71 71 71 69 68 68 67 66 64 63 65 65 66 62 53 53 53 54 59
58 58 46 47 65 73 73 71 74 73 71 76 75 73 74 76 76 76 76 76 76 76 76 78 78 78 78 77 76 75 74 74 75 74 73 73 73 73 73 73 72 72 71 70 70 68 68 68 67 67 66 64 63 61 61 61 60 64 55 53 52 53 54
64 62 65 73 73 71 70 70 71 70 72 72 72 74 76 77 76 76 76 76 76 77 77 77 77 77 77 76 76 75 74 74 74 73 72 73 73 73 72 72 72 71 72 71 69 67 67 66 66 66 65 65 65 62 60 60 59 58 60 53 52 51 52
65 64 63 67 69 70 68 72 73 73 74 73 74 75 76 77 75 75 75 76 77 77 77 77 77 77 76 75 74 73 73 72 72 72 72 73 73 73 72 72 72 71 71 70 68 67 67 67 65 64 63 63 63 64 63 62 61 58 58 58 52 51 51
65 63 66 70 68 71 72 72 74 73 74 75 76 76 76 76 75 75 75 76 77 76 76 76 76 75 74 73 73 72 72 72 72 72 72 72 72 72 72 71 71 70 70 68 67 66 66 65 64 64 63 63 63 63 64 70 67 63 60 56 54 52 51
68 68 69 69 71 74 72 73 73 73 74 75 75 75 75 76 76 75 76 76 76 76 76 75 74 74 73 73 72 71 71 70 70 70 71 71 72 72 71 70 69 68 68 67 66 66 65 64 63 63 63 63 63 64 66 67 66 64 61 58 56 55 53
66 66 66 68 73 74 73 73 71 72 73 74 75 76 76 75 74 75 75 75 75 75 75 74 74 73 73 72 71 71 70 70 68 69 69 71 71 71 71 70 69 69 68 67 66 66 65 64 64 64 63 63 64 66 66 66 65 64 63 62 61 59 57
66 68 67 67 68 69 70 70 72 72 73 73 74 74 74 74 73 73 73 72 72 73 73 73 72 72 72 71 71 70 71 70 70 69 68 68 69 69 69 69 69 68 67 66 66 66 66 65 65 64 63 63 64 65 65 66 65 64 63 63 62 61 60
65 66 66 66 67 68 67 68 67 68 69 70 72 72 72 72 72 71 73 73 74 74 73 73 72 72 71 71 69 69 70 69 69 68 68 64 61 56 54 55 62 68 69 69 65 68 69 66 66 65 63 62 63 65 65 64 64 65 59 63 59 62 61
65 66 66 67 68 69 69 68 69 70 70 72 72 71 72 72 72 72 72 72 72 72 72 71 70 69 67 67 66 66 67 67 65 66 66 63 60 57 53 48 45 49 57 60 53 48 44 49 66 67 65 68 68 68 65 64 65 56 52 52 52 49 50
65 66 66 67 68 67 68 69 70 70 70 70 71 71 71 71 70 70 70 71 71 71 71 70 69 67 65 66 64 64 66 66 65 67 66 64 63 62 59 57 54 43 43 47 47 45 43 43 44 55 59 65 64 59 53 52 50 49 48 47 45 43 43
66 66 65 66 67 68 68 68 68 68 69 69 69 68 69 68 69 71 69 70 69 70 71 70 70 67 65 64 65 66 68 66 68 66 65 65 65 64 64 62 60 57 47 43 45 44 43 43 45 47 50 53 55 56 56 50 46 44 43 42 41 41 41

ECMWFFLT1_sfc_dewp_042.txt.gz
Dewpoint
49 50 50 51 52 53 55 57 56 57 59 60 61 61 63 65 67 69 69 70 70 71 71 71 71 72 72 72 72 72 72 72 72 72 72 72 71 71 71 71 71 71 71 71 71 72 71 71 71 71 70 69 68 67 66 67 67 66 66 66 66 66 65
50 50 51 52 52 53 54 56 57 57 58 60 61 61 62 64 67 68 69 70 70 70 72 72 72 72 72 72 72 72 72 72 72 73 72 72 72 72 72 71 71 71 71 71 71 71 71 71 71 70 70 69 67 66 65 65 66 66 66 66 65 65 65
50 51 51 52 53 53 54 55 57 57 58 60 61 62 62 64 66 68 69 70 70 70 71 72 72 72 72 72 72 72 72 72 72 73 72 72 72 72 72 71 71 71 71 71 70 71 71 70 70 69 69 68 66 66 64 64 66 67 66 66 66 65 65
50 50 52 52 53 54 55 55 57 57 57 59 61 62 63 64 65 67 69 70 70 70 71 72 72 72 72 72 72 72 72 73 73 73 73 73 72 73 72 72 71 71 71 71 70 71 70 70 69 68 70 67 66 66 65 64 65 67 66 66 65 65 65
50 50 51 53 53 54 55 55 56 57 57 59 61 63 63 65 66 67 68 70 70 70 71 72 72 72 73 72 72 72 72 73 73 73 73 73 73 73 72 71 71 71 71 70 71 71 70 70 69 67 68 66 66 66 65 65 65 66 66 66 65 65 65
48 50 50 52 53 54 55 55 56 57 57 58 61 62 64 64 65 66 68 69 70 71 71 72 72 73 72 73 73 73 73 73 73 73 73 73 73 72 72 72 71 71 70 70 70 70 70 69 68 67 66 66 65 66 66 66 65 66 65 65 65 65 64
48 49 50 50 52 54 55 55 56 57 58 59 61 63 64 64 65 66 68 69 70 71 71 71 72 72 73 73 73 73 73 73 73 73 73 73 73 73 72 72 71 71 71 70 70 69 70 69 68 67 66 65 66 65 65 66 65 66 65 65 64 65 65
48 49 50 50 51 52 54 55 57 57 58 60 61 63 64 65 66 66 67 69 70 71 71 71 72 72 73 73 73 73 73 73 73 73 73 73 73 73 73 72 72 71 71 70 70 69 69 69 68 67 66 65 65 65 65 66 66 66 65 64 64 64 65
48 49 50 50 50 51 53 55 57 58 59 60 61 63 64 65 65 66 67 69 70 71 71 72 72 72 73 73 73 73 73 73 73 73 73 73 73 73 73 73 72 72 71 70 69 69 68 69 68 68 67 65 65 66 65 65 66 66 66 64 63 63 64
47 49 50 51 51 51 53 55 58 60 60 61 62 63 64 65 65 66 67 68 70 70 71 72 72 73 73 73 73 73 73 73 74 73 73 73 73 73 73 73 72 72 71 70 70 69 69 69 68 68 67 66 65 65 66 66 65 65 66 65 64 63 63
47 49 50 51 51 52 54 55 58 61 61 61 62 63 65 65 65 66 67 68 69 70 71 72 73 73 73 73 73 73 73 73 73 73 73 73 73 73 73 73 72 72 71 71 70 69 69 68 68 68 67 67 66 66 66 66 66 65 65 65 65 64 63
49 50 51 51 52 53 53 56 59 61 61 62 62 63 65 65 66 66 67 67 68 70 71 72 73 73 73 73 73 73 73 73 73 73 73 73 73 73 73 73 73 72 71 71 70 69 68 68 68 68 67 67 66 66 66 66 66 66 65 65 65 65 64
49 50 51 51 52 53 54 56 58 60 61 62 62 62 64 65 65 66 67 67 68 69 71 72 73 73 73 73 73 73 73 73 73 73 73 73 73 73 73 73 73 72 72 71 70 69 69 68 68 68 67 67 67 66 66 66 66 66 66 65 65 65 65
56 49 51 52 52 53 54 55 57 59 60 61 62 62 64 65 65 66 66 67 67 68 70 71 72 73 73 73 73 73 73 73 73 73 73 73 73 73 73 73 73 73 72 72 71 70 69 68 68 68 67 67 67 67 66 66 66 66 66 66 65 65 65
48 47 49 50 52 53 54 55 57 58 59 60 61 62 63 64 65 66 66 66 67 68 69 71 72 73 73 73 73 73 73 73 73 73 73 73 73 72 72 72 73 73 72 72 71 71 70 69 68 68 68 67 67 67 66 66 66 66 66 66 65 65 65
49 48 48 49 51 52 53 55 57 58 58 59 61 62 62 64 65 65 66 66 66 67 69 70 71 72 73 73 73 73 73 73 73 73 73 73 73 72 72 72 72 72 72 72 72 71 71 70 69 68 68 67 67 67 67 66 66 65 62 63 66 65 65
48 49 48 49 51 52 54 55 56 58 59 59 60 61 63 64 65 65 65 66 66 67 68 70 71 72 72 73 73 73 73 73 73 73 73 73 73 72 72 72 72 72 72 72 72 72 71 71 70 69 68 68 67 67 67 67 66 62 60 62 63 65 65
46 49 50 51 52 54 55 56 57 58 59 60 61 62 63 64 65 66 66 66 66 67 68 69 70 71 72 72 73 73 73 73 73 73 73 73 73 72 72 72 72 72 72 72 72 72 72 71 70 70 69 68 68 67 67 66 63 60 60 61 61 63 66
51 51 52 53 55 56 56 56 57 59 60 61 62 63 63 64 65 66 66 66 67 67 67 68 69 70 71 72 73 73 73 73 73 73 73 73 73 72 72 72 72 72 71 72 72 72 72 71 71 70 69 69 68 67 67 67 63 60 60 61 61 61 64
52 53 54 54 55 56 57 58 59 60 62 63 64 64 64 65 65 66 66 67 67 67 67 68 68 70 71 72 73 73 73 73 73 73 73 73 73 72 72 72 71 71 71 72 72 72 72 71 71 71 70 69 68 68 68 67 62 59 59 60 60 60 62
57 56 57 57 57 56 57 59 60 61 62 63 64 65 65 65 66 66 67 67 67 67 67 67 68 69 70 71 72 73 73 73 73 73 73 73 72 72 72 72 72 72 71 71 72 72 72 71 71 71 70 70 69 68 68 68 60 58 58 58 59 59 61
54 55 54 55 58 60 60 59 59 60 61 63 64 66 66 65 66 66 67 67 67 67 67 67 68 69 70 71 72 73 73 73 73 73 73 72 72 72 72 72 72 72 72 71 72 72 72 72 71 71 70 70 69 68 68 67 58 57 57 58 58 59 63
44 49 51 50 55 59 62 62 61 61 62 63 64 66 67 66 66 67 67 67 67 67 67 67 67 68 69 70 71 72 73 73 73 73 72 72 72 72 72 72 72 72 72 72 72 72 72 72 71 71 70 70 69 68 68 67 59 57 56 57 58 59 64
60 51 44 51 56 58 60 62 63 64 66 66 66 66 67 67 67 68 68 68 68 68 67 67 67 68 69 70 70 72 73 73 73 73 72 72 72 72 72 72 72 72 72 72 71 71 72 72 72 71 70 70 69 69 68 67 59 55 56 56 57 59 64
66 66 62 51 49 56 61 63 64 64 66 67 68 68 68 68 68 68 68 68 68 68 67 67 67 67 68 69 70 71 72 73 73 73 72 72 72 72 72 72 72 72 73 72 72 72 72 71 71 71 70 69 69 66 67 67 60 55 56 56 56 59 65
66 66 68 69 69 61 58 64 65 66 65 65 67 69 70 69 69 69 69 68 68 68 68 68 68 68 68 69 70 71 72 73 73 73 73 72 72 72 72 73 73 73 72 72 72 72 72 71 71 69 69 68 68 68 67 67 63 59 55 55 54 57 65
66 66 66 67 68 69 67 58 62 64 65 66 68 69 70 70 69 69 69 69 69 68 68 68 68 68 68 69 70 71 71 72 73 73 73 73 73 73 73 73 73 73 73 72 72 71 70 69 69 68 67 67 67 67 67 67 63 60 54 53 53 55 60
66 66 67 67 68 67 68 69 68 66 67 69 70 71 71 71 70 70 69 69 69 69 69 69 69 69 69 70 70 71 72 72 73 73 74 74 74 74 73 73 73 73 73 72 71 69 68 68 67 67 66 66 66 66 66 65 61 61 54 53 53 54 57
65 65 65 65 65 66 68 67 67 68 68 69 70 71 71 71 70 70 70 70 70 71 71 71 70 70 70 71 71 71 72 73 73 74 74 74 74 74 73 73 73 73 72 71 70 69 68 67 66 66 65 64 64 64 64 64 62 58 57 53 53 52 54
65 65 64 64 65 66 67 67 67 67 68 69 69 69 70 71 70 70 70 71 72 73 73 73 73 73 72 72 72 73 73 74 74 74 74 74 74 73 73 73 73 72 72 71 70 69 68 67 66 65 64 63 63 63 64 65 63 58 56 56 53 52 53
65 65 65 64 64 65 66 66 66 67 67 67 68 69 69 69 70 69 70 71 72 73 74 74 75 75 74 74 74 74 74 74 74 74 74 74 73 73 72 72 72 71 71 70 70 69 68 66 65 65 64 63 62 61 61 63 63 61 58 56 54 52 52
64 65 65 65 65 65 65 66 66 67 67 67 68 68 68 69 69 69 69 70 71 72 73 74 75 75 74 75 75 75 75 74 74 74 73 73 73 72 72 72 71 70 69 69 68 67 66 65 65 64 63 62 61 61 60 61 61 61 59 58 55 54 53
63 63 64 64 65 65 65 65 65 66 66 66 67 68 68 68 68 67 67 68 71 72 73 73 74 74 74 75 74 74 74 74 73 72 72 72 71 71 71 70 69 68 67 67 66 66 65 65 64 64 63 63 62 61 61 59 60 60 59 58 57 57 56
63 64 64 64 65 66 66 65 65 65 66 66 67 67 68 68 69 69 69 70 70 71 71 72 73 73 73 73 72 72 72 72 73 72 71 70 70 69 69 68 68 67 67 66 66 65 64 64 64 63 63 62 62 62 61 60 60 59 59 59 58 58 57
62 63 64 64 65 65 65 64 64 64 64 65 65 66 66 67 69 69 68 69 69 69 70 70 69 70 71 70 70 68 67 67 65 62 59 56 54 50 55 66 67 65 59 57 63 66 65 64 64 64 63 63 63 62 62 62 62 61 56 59 55 57 57
61 62 64 65 65 64 64 64 63 63 63 64 65 65 65 66 68 69 70 69 70 70 69 68 68 68 68 67 67 67 65 64 64 63 61 60 59 56 53 49 45 54 63 59 54 52 57 59 64 64 64 64 64 64 64 63 64 57 52 50 49 49 51
60 61 63 65 64 64 64 64 64 64 64 65 65 65 66 66 67 68 69 68 68 69 69 68 67 66 66 66 66 64 64 64 63 62 62 61 61 59 57 56 53 43 42 47 49 46 43 44 51 56 59 63 63 59 57 60 55 51 49 48 46 46 47
59 60 62 64 65 65 64 64 64 64 64 64 65 65 66 67 68 67 68 68 68 67 67 67 66 66 66 66 66 65 64 64 63 63 62 63 62 62 60 59 56 54 46 42 43 43 41 40 43 50 53 55 58 57 56 51 48 47 46 45 45 45 45

ECMWFFLT1_sfc_dewp_045.txt.gz
Dewpoint
47 48 49 51 53 53 54 55 55 55 56 57 58 59 61 63 64 65 66 67 67 67 69 70 70 71 71 71 71 71 71 71 71 71 71 71 71 71 71 71 71 72 73 73 73 73 73 74 73 74 73 72 72 71 70 70 68 68 66 65 64 64 63
47 47 48 50 52 53 54 55 55 55 56 57 58 59 60 63 64 65 66 66 67 67 68 69 70 71 71 71 71 71 71 71 71 71 71 71 71 71 71 71 71 72 73 73 73 73 73 73 73 73 72 72 71 70 70 69 68 67 66 65 64 63 64
47 47 48 49 51 52 54 55 55 55 55 56 57 58 60 62 64 65 66 66 67 67 68 69 70 70 71 71 71 71 71 71 71 71 71 71 71 70 71 71 71 71 72 72 73 73 73 72 73 73 72 71 70 70 69 69 68 67 66 65 64 64 64
48 47 48 49 51 52 53 54 55 55 55 55 56 58 59 61 63 65 66 66 66 67 67 68 70 70 71 71 71 71 71 71 71 71 71 71 71 71 71 71 71 71 71 72 72 72 72 72 72 72 73 71 70 69 68 68 67 67 66 65 65 64 64
48 48 48 49 50 51 53 54 55 55 55 55 56 59 59 60 63 65 66 66 66 67 68 68 69 70 71 71 71 71 71 71 71 71 71 71 71 72 71 71 71 71 71 71 71 72 72 71 71 71 71 71 70 69 68 66 66 67 66 65 65 64 64
48 49 49 49 49 51 52 53 54 55 55 55 56 57 59 60 62 64 65 66 67 67 68 68 69 69 70 71 71 71 71 71 71 71 71 71 71 71 71 71 71 71 70 71 71 71 71 71 71 71 70 70 69 68 67 66 65 66 66 65 64 64 64
48 49 50 50 50 50 51 52 53 55 55 56 56 58 59 59 61 63 65 66 67 67 67 68 69 69 70 70 71 71 71 71 72 71 72 71 71 71 72 72 71 71 71 71 71 71 70 70 70 70 70 70 69 68 67 66 64 65 66 65 64 64 64
47 49 50 50 50 50 51 52 53 54 56 56 56 57 59 60 61 62 64 65 67 67 67 68 69 70 70 70 70 71 71 71 72 72 72 72 72 72 72 72 72 71 71 70 70 70 70 70 70 70 69 69 68 68 67 66 65 64 65 65 64 64 64
46 48 50 50 50 51 51 52 53 53 55 56 56 58 59 60 60 62 63 65 66 67 68 68 69 70 71 71 71 71 71 71 71 72 72 72 72 72 72 72 72 72 71 70 70 70 70 70 70 69 69 68 68 67 67 66 65 64 64 64 64 64 64
46 48 50 51 51 51 51 52 54 54 55 57 57 58 60 61 61 62 63 64 66 67 68 68 69 70 71 71 71 71 71 71 71 72 72 72 72 72 72 72 72 72 72 71 70 70 70 70 69 69 68 67 67 67 66 66 66 65 64 64 64 64 64
46 48 50 51 51 52 52 52 54 55 56 57 58 58 60 61 61 62 63 64 65 66 68 68 69 70 70 71 71 71 71 71 71 71 72 72 72 72 72 72 72 72 72 71 70 70 70 70 70 69 68 68 67 66 66 66 65 65 65 64 64 63 63
48 49 50 51 51 52 52 53 55 56 57 58 58 58 60 61 62 62 63 64 65 66 67 68 69 70 70 71 71 71 71 71 71 71 71 72 72 72 72 72 72 72 72 71 71 70 70 69 69 69 68 68 67 66 66 66 65 65 65 65 64 64 63
46 48 50 49 51 51 52 55 55 56 57 58 58 59 60 61 62 63 64 64 65 66 67 68 69 70 70 71 71 71 71 72 72 72 72 72 72 72 72 72 72 72 72 72 71 70 69 69 69 69 69 68 68 67 66 66 65 65 65 65 65 64 63
53 47 49 49 50 51 52 54 56 57 58 58 59 59 60 62 62 63 64 64 65 66 67 68 69 70 70 71 71 71 71 72 72 72 72 72 72 72 72 72 72 72 72 72 71 70 70 69 69 69 69 68 68 67 67 66 66 65 65 65 65 65 64
47 47 48 49 51 52 52 53 56 57 58 58 59 59 60 62 62 63 64 64 66 66 67 69 70 70 70 71 71 71 71 72 72 72 73 73 72 72 72 72 72 73 72 72 71 71 70 70 69 68 68 68 68 67 67 66 66 66 65 65 65 65 64
47 47 48 49 51 52 53 53 55 57 58 59 59 60 60 62 63 64 64 65 66 67 68 69 70 70 71 71 71 71 72 72 72 72 73 73 72 72 72 72 72 72 72 72 72 71 71 70 69 68 68 68 68 67 67 67 66 65 62 63 65 65 65
48 48 48 49 50 51 52 53 54 56 58 59 60 60 60 62 63 64 64 65 66 67 68 69 70 71 71 71 71 72 72 72 72 72 72 73 73 73 72 72 72 72 72 72 72 71 71 70 69 69 68 68 67 67 67 67 66 62 60 61 62 64 65
48 48 48 48 49 51 53 54 54 56 57 58 60 61 61 62 63 64 64 65 66 67 68 69 70 70 71 71 72 72 72 72 72 72 72 73 73 73 73 72 72 72 72 72 72 72 71 71 70 69 69 68 68 67 67 67 63 60 60 60 61 63 65
48 49 48 48 49 52 52 52 53 55 56 57 60 61 61 62 63 64 65 65 66 67 68 69 70 70 71 71 72 72 72 72 72 72 72 72 73 73 73 72 72 72 72 72 72 72 71 71 70 70 69 68 68 67 67 67 63 60 59 60 60 61 63
48 47 48 48 50 51 52 53 54 54 56 57 59 61 61 62 63 64 65 65 66 67 67 68 69 70 70 71 72 72 72 73 72 72 72 73 73 72 72 72 72 72 72 72 72 72 71 71 71 70 70 69 68 68 68 67 62 59 58 59 59 60 62
55 55 53 52 52 51 53 54 54 55 56 58 59 60 61 62 63 64 65 66 66 67 67 68 68 69 70 71 72 72 72 73 72 72 72 72 72 72 72 72 72 72 72 71 71 71 71 71 71 71 70 70 69 69 68 68 62 58 57 57 58 59 60
60 52 56 55 53 53 53 53 54 54 56 58 60 60 60 61 62 63 64 66 66 66 66 67 68 68 69 70 71 72 72 72 72 72 72 72 72 72 72 72 72 72 72 71 71 71 72 72 71 71 71 70 70 69 69 68 60 58 57 57 57 59 63
65 64 60 57 57 58 60 60 59 59 61 61 60 60 60 61 62 63 64 65 65 66 66 67 67 68 69 69 70 71 72 72 72 72 72 72 72 72 72 72 72 72 72 71 71 71 71 71 71 71 71 71 70 70 69 69 62 57 56 56 56 58 64
66 66 66 67 66 65 62 61 60 60 60 60 61 61 61 61 63 63 64 65 66 66 66 66 66 67 68 69 70 71 72 72 72 72 72 72 72 72 72 72 72 72 72 71 71 70 71 71 71 71 71 71 71 70 70 69 63 56 55 55 56 59 64
66 66 66 66 67 67 67 64 63 62 63 62 61 63 65 66 65 65 65 65 65 66 65 66 66 66 67 68 69 70 71 72 72 72 72 72 72 72 72 72 72 72 72 71 71 71 71 71 71 71 71 71 71 68 69 70 64 55 55 55 55 59 65
65 65 65 66 66 67 67 66 64 64 64 63 63 64 65 66 66 66 65 65 66 66 66 66 66 66 67 68 69 70 71 72 72 72 72 72 72 72 72 72 72 72 72 71 71 71 71 71 71 71 71 71 71 71 70 70 68 59 54 54 55 56 65
64 65 65 65 66 67 67 67 66 64 65 65 66 68 67 67 67 67 66 66 66 66 66 66 67 67 67 68 68 69 70 71 72 72 72 72 72 72 72 72 72 72 72 71 71 71 71 71 71 71 71 71 71 71 70 70 68 59 53 54 54 55 59
65 65 65 65 66 66 67 67 67 67 68 68 69 68 69 69 67 67 67 67 67 67 67 67 67 68 68 68 68 69 70 71 72 72 72 72 72 72 72 72 72 72 72 72 71 71 71 71 70 71 71 71 70 70 70 69 64 61 54 54 54 54 55
64 64 64 64 65 66 67 66 66 66 66 68 68 68 68 69 69 68 68 68 68 68 68 68 69 69 68 68 68 69 69 70 71 71 72 72 72 72 72 72 72 72 72 72 71 71 71 71 71 70 70 69 68 68 68 67 64 59 58 54 53 53 53
64 65 65 65 65 66 67 66 66 66 67 67 67 67 67 68 68 69 69 68 69 69 70 70 70 69 69 68 68 68 69 69 70 71 72 72 72 72 72 72 72 72 72 72 71 71 71 71 70 70 69 67 66 66 66 65 64 59 57 57 53 53 52
64 64 65 65 65 66 66 66 66 66 67 67 67 67 67 67 67 67 69 69 70 70 70 70 70 70 69 68 68 68 68 69 70 71 71 72 72 72 72 72 72 72 72 72 71 71 71 70 69 69 68 66 65 65 65 64 63 61 59 57 54 53 52
64 64 64 65 66 66 66 66 67 66 66 67 67 67 68 68 66 66 66 67 69 70 71 71 70 70 70 69 69 68 68 69 70 70 71 72 72 72 72 72 72 72 72 71 71 70 70 68 68 67 66 65 65 64 64 64 62 61 60 58 56 55 53
64 64 64 64 65 66 65 65 66 66 66 65 65 66 67 68 69 68 67 67 68 70 70 71 72 71 71 70 70 70 69 70 70 71 71 72 72 72 72 72 72 72 71 71 71 70 69 67 67 66 65 64 63 63 64 63 63 61 60 59 58 57 56
63 64 64 65 65 64 64 64 64 64 64 64 64 65 66 67 68 69 68 68 69 69 69 70 71 72 72 72 72 72 72 72 72 72 73 72 73 72 72 72 72 71 71 71 70 70 68 67 66 65 65 63 62 62 63 63 62 61 59 58 57 57 56
63 64 64 64 64 64 64 64 64 64 64 64 64 64 65 66 67 68 68 68 68 67 68 68 68 69 70 71 71 72 72 73 72 73 73 73 72 71 72 72 72 72 69 65 67 69 68 67 67 66 65 63 62 62 61 61 61 61 56 58 55 56 57
63 63 64 64 64 64 64 65 65 65 65 65 65 65 65 66 66 67 67 67 68 68 68 68 68 68 68 68 69 70 71 72 73 73 72 70 60 56 53 52 54 65 68 63 61 62 61 61 66 66 65 64 64 63 62 61 62 54 51 50 49 50 51
61 62 63 65 65 65 65 65 65 65 65 65 66 66 66 66 67 67 67 66 66 67 67 66 67 67 67 67 67 66 68 71 72 72 71 65 62 61 58 55 49 44 47 51 55 56 55 54 55 57 60 63 62 57 53 55 51 49 48 47 47 47 47
58 60 61 61 61 62 62 63 63 63 64 64 65 65 66 67 67 66 67 66 65 65 64 64 65 64 64 65 64 63 63 64 66 69 67 64 63 62 61 58 54 50 43 47 48 47 47 48 49 51 53 55 57 57 56 50 47 46 46 46 46 46 46